| time (UTC) | temp C | wind direction | speed KPH | gust KPH | rain 1hr cm | rain 24hr cm | rain mn cm | humidity % | barometer mb |
| 20260502152247 | 11 | 148 | 4.8 | 8.0 | 0.00 | 0.00 | 0.61 | 78 | 1011.0 |
| 20260502151746 | 11 | 224 | 0.0 | 1.6 | 0.00 | 0.00 | 0.61 | 80 | 1012.0 |
| 20260502151247 | 11 | 163 | 6.4 | 9.7 | 0.00 | 0.00 | 0.61 | 80 | 1011.0 |
| 20260502150747 | 11 | 264 | 3.2 | 4.8 | 0.00 | 0.00 | 0.61 | 80 | 1012.0 |
| 20260502150247 | 11 | 231 | 0.0 | 1.6 | 0.00 | 0.00 | 0.61 | 81 | 1011.0 |
| 20260502130746 | 8 | 0 | 0.0 | 0.0 | 0.00 | 0.00 | 0.61 | 97 | 1012.0 |
| 20260502130246 | 8 | 0 | 0.0 | 0.0 | 0.00 | 0.00 | 0.64 | 97 | 1012.0 |
| 20260502123746 | 8 | 0 | 0.0 | 0.0 | 0.00 | 0.00 | 0.64 | 99 | 1012.0 |
| 20260502123246 | 8 | 136 | 0.0 | 3.2 | 0.00 | 0.00 | 0.64 | 100 | 1012.0 |
| 20260502122746 | 7 | 208 | 0.0 | 1.6 | 0.00 | 0.00 | 0.64 | 100 | 1012.0 |
| 20260502122247 | 7 | 125 | 0.0 | 1.6 | 0.00 | 0.00 | 0.66 | 100 | 1012.0 |
| 20260502121748 | 7 | 0 | 0.0 | 0.0 | 0.00 | 0.00 | 0.66 | 100 | 1012.0 |
| 20260502121246 | 7 | 162 | 1.6 | 3.2 | 0.00 | 0.00 | 0.66 | 99 | 1012.0 |
| 20260502120746 | 7 | 137 | 1.6 | 3.2 | 0.00 | 0.00 | 0.66 | 99 | 1012.0 |
| 20260502120246 | 7 | 0 | 0.0 | 0.0 | 0.05 | 0.00 | 0.64 | 99 | 1012.0 |
| 20260502115747 | 7 | 52 | 0.0 | 3.2 | 0.05 | 0.00 | 0.64 | 99 | 1012.0 |
| 20260502115246 | 7 | 120 | 0.0 | 3.2 | 0.18 | 0.00 | 0.61 | 99 | 1012.0 |
| 20260502114746 | 7 | 0 | 0.0 | 0.0 | 0.28 | 0.00 | 0.58 | 99 | 1012.0 |
| 20260502114246 | 7 | 0 | 0.0 | 0.0 | 0.03 | 0.00 | 0.58 | 99 | 1012.0 |
| 20260502113746 | 7 | 0 | 0.0 | 0.0 | 0.13 | 0.00 | 0.58 | 99 | 1012.0 |
| 20260502113246 | 7 | 0 | 0.0 | 0.0 | 0.53 | 0.00 | 0.58 | 99 | 1012.0 |
| 20260502112748 | 7 | 0 | 0.0 | 0.0 | 0.69 | 0.00 | 0.51 | 99 | 1012.0 |
| 20260502112246 | 7 | 0 | 0.0 | 0.0 | 0.23 | 0.00 | 0.48 | 99 | 1012.0 |
| 20260502111747 | 7 | 0 | 0.0 | 0.0 | 0.36 | 0.00 | 0.46 | 99 | 1012.0 |
| 20260502111247 | 7 | 0 | 0.0 | 0.0 | 0.08 | 0.00 | 0.46 | 99 | 1012.0 |
| 20260502110746 | 7 | 0 | 0.0 | 0.0 | 0.13 | 0.00 | 0.43 | 99 | 1012.0 |
| 20260502110246 | 7 | 0 | 0.0 | 0.0 | 0.03 | 0.00 | 0.43 | 99 | 1012.0 |
| 20260502105746 | 7 | 0 | 0.0 | 0.0 | 0.03 | 0.00 | 0.41 | 99 | 1012.0 |
| 20260502105248 | 7 | 0 | 0.0 | 0.0 | 0.00 | 0.00 | 0.41 | 99 | 1012.0 |
| 20260502104747 | 7 | 0 | 0.0 | 0.0 | 0.28 | 0.00 | 0.43 | 99 | 1012.0 |
| 20260502104246 | 7 | 0 | 0.0 | 0.0 | 0.69 | 0.00 | 0.38 | 99 | 1013.0 |
| 20260502103747 | 7 | 0 | 0.0 | 0.0 | 0.28 | 0.00 | 0.33 | 99 | 1013.0 |
| 20260502103246 | 7 | 243 | 0.0 | 3.2 | 0.53 | 0.00 | 0.30 | 99 | 1012.0 |
| 20260502102746 | 7 | 256 | 1.6 | 3.2 | 0.00 | 0.00 | 0.28 | 99 | 1012.0 |
| 20260502102246 | 6 | 231 | 0.0 | 1.6 | 0.05 | 0.00 | 0.28 | 99 | 1012.0 |
| 20260502101746 | 6 | 0 | 0.0 | 0.0 | 0.00 | 0.00 | 0.25 | 100 | 1011.0 |
| 20260502101246 | 6 | 0 | 0.0 | 0.0 | 0.00 | 0.00 | 0.25 | 100 | 1011.0 |
| 20260502100746 | 6 | 0 | 0.0 | 0.0 | 0.05 | 0.00 | 0.25 | 100 | 1011.0 |
| 20260502100246 | 6 | 0 | 0.0 | 0.0 | 0.00 | 0.00 | 0.25 | 100 | 1011.0 |
| 20260502091246 | 7 | 0 | 0.0 | 0.0 | 0.00 | 0.00 | 0.28 | 99 | 1011.0 |
| 20260502090748 | 7 | 0 | 0.0 | 0.0 | 0.00 | 0.00 | 0.28 | 99 | 1011.0 |
| 20260502090251 | 7 | 0 | 0.0 | 0.0 | 0.00 | 0.00 | 0.25 | 99 | 1011.0 |
| 20260502071248 | 7 | 252 | 1.6 | 3.2 | 0.15 | 0.00 | 0.08 | 95 | 1012.0 |
| 20260502070746 | 7 | 226 | 0.0 | 1.6 | 0.05 | 0.00 | 0.08 | 96 | 1011.0 |
| 20260502070246 | 7 | 0 | 0.0 | 0.0 | 0.03 | 0.00 | 0.05 | 95 | 1011.0 |
| 20260502065746 | 7 | 0 | 0.0 | 0.0 | 0.08 | 0.00 | 0.05 | 94 | 1011.0 |
| 20260502065247 | 7 | 148 | 0.0 | 1.6 | 0.00 | 0.00 | 0.05 | 95 | 1011.0 |
| 20260502064747 | 7 | 0 | 0.0 | 0.0 | 0.00 | 0.00 | 0.05 | 95 | 1011.0 |
| 20260502064246 | 7 | 0 | 0.0 | 0.0 | 0.00 | 0.00 | 0.05 | 94 | 1011.0 |
| 20260502063746 | 7 | 0 | 0.0 | 0.0 | 0.00 | 0.00 | 0.05 | 94 | 1011.0 |
| 20260502063246 | 7 | 0 | 0.0 | 0.0 | 0.00 | 0.00 | 0.05 | 93 | 1011.0 |
| 20260502062747 | 7 | 0 | 0.0 | 0.0 | 0.00 | 0.00 | 0.05 | 92 | 1011.0 |
| 20260502062246 | 7 | 319 | 0.0 | 3.2 | 0.03 | 0.00 | 0.05 | 91 | 1011.0 |
| 20260502061747 | 7 | 0 | 0.0 | 0.0 | 0.00 | 0.00 | 0.03 | 89 | 1012.0 |
| 20260502061246 | 7 | 0 | 0.0 | 0.0 | 0.05 | 0.00 | 0.03 | 88 | 1012.0 |
| 20260502060746 | 7 | 0 | 0.0 | 0.0 | 0.36 | 0.00 | 0.00 | 86 | 1012.0 |
| 20260502060246 | 7 | 0 | 0.0 | 0.0 | 0.00 | 0.00 | 0.00 | 87 | 1012.0 |
| 20260502055748 | 7 | 0 | 0.0 | 0.0 | 0.00 | 0.00 | 0.00 | 85 | 1012.0 |
| 20260502055246 | 7 | 225 | 3.2 | 3.2 | 0.00 | 0.00 | 0.00 | 83 | 1012.0 |
| 20260502054746 | 8 | 0 | 0.0 | 0.0 | 0.00 | 0.00 | 0.00 | 83 | 1011.0 |
| 20260502054246 | 8 | 149 | 1.6 | 3.2 | 0.00 | 0.00 | 0.00 | 83 | 1011.0 |
| 20260502053747 | 8 | 0 | 0.0 | 0.0 | 0.00 | 0.00 | 0.00 | 81 | 1012.0 |
| 20260502053247 | 8 | 0 | 0.0 | 0.0 | 0.00 | 0.00 | 0.00 | 77 | 1012.0 |
| 20260502052747 | 8 | 222 | 1.6 | 3.2 | 0.00 | 0.00 | 0.00 | 75 | 1012.0 |
| 20260502052246 | 8 | 348 | 0.0 | 1.6 | 0.00 | 0.00 | 0.00 | 70 | 1012.0 |
| 20260502051746 | 8 | 0 | 0.0 | 0.0 | 0.00 | 0.00 | 0.00 | 75 | 1012.0 |
| 20260502051247 | 8 | 0 | 0.0 | 0.0 | 0.00 | 0.00 | 0.00 | 73 | 1012.0 |
| 20260502050746 | 8 | 0 | 0.0 | 0.0 | 0.00 | 0.00 | 0.00 | 76 | 1012.0 |
| 20260502050246 | 8 | 0 | 0.0 | 0.0 | 0.00 | 0.00 | 0.00 | 76 | 1012.0 |
| 20260502045746 | 8 | 0 | 0.0 | 0.0 | 0.00 | 0.00 | 0.00 | 77 | 1012.0 |
| 20260502045246 | 8 | 0 | 0.0 | 0.0 | 0.00 | 0.00 | 0.00 | 78 | 1012.0 |
| 20260502044746 | 8 | 0 | 0.0 | 0.0 | 0.00 | 0.00 | 0.00 | 76 | 1012.0 |
| 20260502044246 | 8 | 0 | 0.0 | 0.0 | 0.00 | 0.00 | 0.00 | 76 | 1011.0 |
| 20260502043747 | 8 | 108 | 0.0 | 1.6 | 0.00 | 0.00 | 0.00 | 73 | 1011.0 |
| 20260502043246 | 8 | 0 | 0.0 | 0.0 | 0.00 | 0.00 | 0.00 | 72 | 1011.0 |
| 20260502042746 | 8 | 0 | 0.0 | 0.0 | 0.00 | 0.00 | 0.00 | 72 | 1011.0 |
| 20260502042246 | 8 | 0 | 0.0 | 0.0 | 0.00 | 0.00 | 0.00 | 71 | 1011.0 |
| 20260502041746 | 8 | 0 | 0.0 | 0.0 | 0.00 | 0.00 | 0.00 | 71 | 1011.0 |
| 20260502041246 | 8 | 0 | 0.0 | 0.0 | 0.00 | 0.00 | 0.00 | 74 | 1012.0 |
| 20260502040746 | 8 | 0 | 0.0 | 0.0 | 0.00 | 0.00 | 0.00 | 75 | 1012.0 |
| 20260502040247 | 8 | 0 | 0.0 | 0.0 | 0.00 | 0.00 | 0.00 | 74 | 1012.0 |
| 20260502035746 | 8 | 0 | 0.0 | 0.0 | 0.00 | 0.00 | 0.00 | 74 | 1012.0 |
| 20260502035246 | 8 | 0 | 0.0 | 0.0 | 0.00 | 0.00 | 0.00 | 73 | 1012.0 |
| 20260502034747 | 8 | 0 | 0.0 | 0.0 | 0.00 | 0.00 | 0.00 | 74 | 1012.0 |
| 20260502034247 | 8 | 0 | 0.0 | 0.0 | 0.00 | 0.00 | 0.00 | 73 | 1012.0 |
| 20260502033746 | 8 | 78 | 0.0 | 1.6 | 0.00 | 0.00 | 0.00 | 68 | 1012.0 |
| 20260502033246 | 8 | 0 | 0.0 | 0.0 | 0.00 | 0.00 | 0.00 | 67 | 1012.0 |
| 20260502032746 | 8 | 0 | 0.0 | 0.0 | 0.00 | 0.00 | 0.00 | 66 | 1012.0 |
| 20260502032247 | 8 | 0 | 0.0 | 0.0 | 0.00 | 0.00 | 0.00 | 66 | 1012.0 |
| 20260502031747 | 8 | 0 | 0.0 | 0.0 | 0.00 | 0.00 | 0.00 | 65 | 1012.0 |
| 20260502031246 | 8 | 0 | 0.0 | 0.0 | 0.00 | 0.00 | 0.00 | 65 | 1012.0 |
| 20260502030746 | 8 | 0 | 0.0 | 0.0 | 0.00 | 0.00 | 0.00 | 68 | 1012.0 |
| 20260502030247 | 8 | 0 | 0.0 | 0.0 | 0.00 | 0.00 | 0.00 | 70 | 1012.0 |
| 20260502025748 | 8 | 0 | 0.0 | 0.0 | 0.00 | 0.00 | 0.00 | 70 | 1012.0 |
| 20260502025246 | 8 | 0 | 0.0 | 0.0 | 0.00 | 0.00 | 0.00 | 68 | 1012.0 |
| 20260502024746 | 8 | 0 | 0.0 | 0.0 | 0.00 | 0.00 | 0.00 | 68 | 1012.0 |
| 20260502024246 | 8 | 0 | 0.0 | 0.0 | 0.00 | 0.00 | 0.00 | 67 | 1012.0 |
| 20260502023746 | 8 | 0 | 0.0 | 0.0 | 0.00 | 0.00 | 0.00 | 67 | 1012.0 |
| 20260502023246 | 8 | 0 | 0.0 | 0.0 | 0.00 | 0.00 | 0.00 | 69 | 1012.0 |
| 20260502022746 | 8 | 0 | 0.0 | 0.0 | 0.00 | 0.00 | 0.00 | 71 | 1012.0 |
| 20260502022246 | 9 | 0 | 0.0 | 0.0 | 0.00 | 0.00 | 0.00 | 66 | 1012.0 |
| 20260502021747 | 9 | 0 | 0.0 | 0.0 | 0.00 | 0.00 | 0.00 | 67 | 1012.0 |
| 20260502021246 | 8 | 0 | 0.0 | 0.0 | 0.00 | 0.00 | 0.00 | 70 | 1012.0 |
| 20260502020746 | 8 | 0 | 0.0 | 0.0 | 0.00 | 0.00 | 0.00 | 68 | 1012.0 |
| 20260502020246 | 8 | 0 | 0.0 | 0.0 | 0.00 | 0.00 | 0.00 | 68 | 1011.0 |
| 20260502015747 | 8 | 0 | 0.0 | 0.0 | 0.00 | 0.00 | 0.00 | 67 | 1011.0 |
| 20260502015246 | 8 | 0 | 0.0 | 0.0 | 0.00 | 0.00 | 0.00 | 66 | 1011.0 |
| 20260502014746 | 8 | 0 | 0.0 | 0.0 | 0.00 | 0.00 | 0.00 | 66 | 1011.0 |
| 20260502014246 | 8 | 0 | 0.0 | 0.0 | 0.00 | 0.00 | 0.00 | 68 | 1011.0 |
| 20260502013746 | 8 | 0 | 0.0 | 0.0 | 0.00 | 0.00 | 0.00 | 64 | 1011.0 |
| 20260502013246 | 8 | 0 | 0.0 | 0.0 | 0.00 | 0.00 | 0.00 | 69 | 1011.0 |
| 20260502012746 | 8 | 0 | 0.0 | 0.0 | 0.00 | 0.00 | 0.00 | 63 | 1011.0 |
| 20260502012246 | 9 | 0 | 0.0 | 0.0 | 0.00 | 0.00 | 0.00 | 62 | 1011.0 |
| 20260502011746 | 9 | 0 | 0.0 | 0.0 | 0.00 | 0.00 | 0.00 | 61 | 1011.0 |
| 20260502011246 | 9 | 0 | 0.0 | 0.0 | 0.00 | 0.00 | 0.00 | 64 | 1011.0 |
| 20260502010746 | 9 | 0 | 0.0 | 0.0 | 0.00 | 0.00 | 0.00 | 65 | 1011.0 |
| 20260502010246 | 9 | 256 | 0.0 | 1.6 | 0.00 | 0.00 | 0.00 | 60 | 1011.0 |
| 20260502005746 | 9 | 0 | 0.0 | 0.0 | 0.00 | 0.00 | 0.00 | 59 | 1011.0 |
| 20260502005246 | 9 | 0 | 0.0 | 0.0 | 0.00 | 0.00 | 0.00 | 58 | 1011.0 |
| 20260502004746 | 10 | 0 | 0.0 | 0.0 | 0.00 | 0.00 | 0.00 | 60 | 1011.0 |
| 20260502004248 | 10 | 0 | 0.0 | 0.0 | 0.00 | 0.00 | 0.00 | 62 | 1011.0 |
| 20260502003746 | 10 | 0 | 0.0 | 0.0 | 0.00 | 0.00 | 0.00 | 58 | 1011.0 |
| 20260502003246 | 10 | 0 | 0.0 | 0.0 | 0.00 | 0.00 | 0.00 | 60 | 1011.0 |
| 20260502002746 | 10 | 0 | 0.0 | 0.0 | 0.00 | 0.00 | 0.00 | 57 | 1011.0 |
| 20260502002246 | 10 | 0 | 0.0 | 0.0 | 0.00 | 0.00 | 0.00 | 53 | 1011.0 |
| 20260502001747 | 10 | 0 | 0.0 | 0.0 | 0.00 | 0.00 | 0.00 | 54 | 1010.0 |
| 20260502001246 | 10 | 0 | 0.0 | 0.0 | 0.00 | 0.00 | 0.00 | 57 | 1010.0 |
| 20260502000747 | 11 | 0 | 0.0 | 0.0 | 0.00 | 0.00 | 0.00 | 54 | 1010.0 |
| 20260502000248 | 11 | 0 | 0.0 | 0.0 | 0.00 | 0.00 | 0.00 | 53 | 1010.0 |
| 20260501235746 | 11 | 0 | 0.0 | 0.0 | 0.00 | 0.00 | 0.00 | 51 | 1010.0 |
| 20260501235246 | 11 | 261 | 1.6 | 3.2 | 0.00 | 0.00 | 0.00 | 52 | 1010.0 |
| 20260501234746 | 11 | 0 | 0.0 | 0.0 | 0.00 | 0.00 | 0.00 | 54 | 1010.0 |
| 20260501234246 | 12 | 0 | 0.0 | 0.0 | 0.00 | 0.00 | 0.00 | 52 | 1010.0 |
| 20260501233746 | 12 | 0 | 0.0 | 0.0 | 0.00 | 0.00 | 0.00 | 52 | 1010.0 |
| 20260501233246 | 12 | 0 | 0.0 | 0.0 | 0.00 | 0.00 | 0.00 | 52 | 1010.0 |
| 20260501232746 | 13 | 0 | 0.0 | 0.0 | 0.00 | 0.00 | 0.00 | 47 | 1010.0 |
| 20260501232246 | 13 | 0 | 0.0 | 0.0 | 0.00 | 0.00 | 0.00 | 45 | 1010.0 |
| 20260501231746 | 13 | 0 | 0.0 | 0.0 | 0.00 | 0.00 | 0.00 | 45 | 1010.0 |
| 20260501231246 | 13 | 0 | 0.0 | 0.0 | 0.00 | 0.00 | 0.00 | 45 | 1010.0 |
| 20260501230746 | 14 | 252 | 0.0 | 3.2 | 0.00 | 0.00 | 0.00 | 44 | 1010.0 |
| 20260501230246 | 14 | 0 | 0.0 | 0.0 | 0.00 | 0.00 | 0.00 | 40 | 1009.0 |
| 20260501225748 | 14 | 286 | 0.0 | 1.6 | 0.00 | 0.00 | 0.00 | 39 | 1009.0 |
| 20260501225246 | 14 | 251 | 0.0 | 3.2 | 0.00 | 0.00 | 0.00 | 39 | 1009.0 |
| 20260501224746 | 14 | 301 | 0.0 | 1.6 | 0.00 | 0.00 | 0.00 | 38 | 1009.0 |
| 20260501224246 | 14 | 0 | 0.0 | 0.0 | 0.00 | 0.00 | 0.00 | 42 | 1009.0 |
| 20260501223748 | 15 | 0 | 0.0 | 0.0 | 0.00 | 0.00 | 0.00 | 41 | 1009.0 |
| 20260501223247 | 15 | 0 | 0.0 | 0.0 | 0.00 | 0.00 | 0.00 | 40 | 1009.0 |
| 20260501222747 | 15 | 324 | 0.0 | 1.6 | 0.00 | 0.00 | 0.00 | 37 | 1009.0 |
| 20260501222246 | 15 | 295 | 1.6 | 3.2 | 0.00 | 0.00 | 0.00 | 37 | 1009.0 |
| 20260501221747 | 15 | 271 | 1.6 | 3.2 | 0.00 | 0.00 | 0.00 | 37 | 1009.0 |
| 20260501221247 | 15 | 337 | 1.6 | 3.2 | 0.00 | 0.00 | 0.00 | 37 | 1009.0 |
| 20260501220746 | 15 | 330 | 0.0 | 3.2 | 0.00 | 0.00 | 0.00 | 38 | 1009.0 |
| 20260501220246 | 15 | 359 | 0.0 | 3.2 | 0.00 | 0.00 | 0.00 | 38 | 1009.0 |
| 20260501215248 | 15 | 229 | 1.6 | 4.8 | 0.00 | 0.00 | 0.00 | 36 | 1009.0 |
| 20260501214746 | 15 | 269 | 1.6 | 4.8 | 0.00 | 0.00 | 0.00 | 36 | 1009.0 |
| 20260501214246 | 15 | 237 | 1.6 | 3.2 | 0.00 | 0.00 | 0.00 | 36 | 1009.0 |
| 20260501213746 | 15 | 13 | 0.0 | 1.6 | 0.00 | 0.00 | 0.00 | 36 | 1009.0 |
| 20260501213247 | 15 | 274 | 3.2 | 4.8 | 0.00 | 0.00 | 0.00 | 36 | 1009.0 |
| 20260501212746 | 15 | 291 | 1.6 | 3.2 | 0.00 | 0.00 | 0.00 | 36 | 1009.0 |
| 20260501212246 | 16 | 291 | 3.2 | 6.4 | 0.00 | 0.00 | 0.00 | 35 | 1009.0 |
| 20260501211747 | 16 | 280 | 0.0 | 1.6 | 0.00 | 0.00 | 0.00 | 36 | 1009.0 |
| 20260501211246 | 15 | 334 | 1.6 | 3.2 | 0.00 | 0.00 | 0.00 | 36 | 1009.0 |
| 20260501210746 | 16 | 246 | 4.8 | 8.0 | 0.00 | 0.00 | 0.00 | 35 | 1009.0 |
| 20260501210246 | 15 | 281 | 1.6 | 4.8 | 0.00 | 0.00 | 0.00 | 37 | 1009.0 |
| 20260501205746 | 16 | 230 | 4.8 | 8.0 | 0.00 | 0.00 | 0.00 | 36 | 1009.0 |
| 20260501205246 | 15 | 266 | 0.0 | 1.6 | 0.00 | 0.00 | 0.00 | 37 | 1009.0 |
| 20260501204746 | 16 | 344 | 1.6 | 6.4 | 0.00 | 0.00 | 0.00 | 36 | 1009.0 |
| 20260501204249 | 16 | 7 | 3.2 | 6.4 | 0.00 | 0.00 | 0.00 | 37 | 1009.0 |
| 20260501203747 | 16 | 309 | 1.6 | 3.2 | 0.00 | 0.00 | 0.00 | 37 | 1009.0 |
| 20260501203246 | 16 | 236 | 1.6 | 3.2 | 0.00 | 0.00 | 0.00 | 37 | 1009.0 |
| 20260501202746 | 15 | 345 | 3.2 | 6.4 | 0.00 | 0.00 | 0.00 | 38 | 1009.0 |
| 20260501202246 | 15 | 33 | 3.2 | 4.8 | 0.00 | 0.00 | 0.00 | 38 | 1009.0 |
| 20260501201746 | 16 | 177 | 6.4 | 8.0 | 0.00 | 0.00 | 0.00 | 38 | 1009.0 |
| 20260501201246 | 16 | 155 | 4.8 | 8.0 | 0.00 | 0.00 | 0.00 | 37 | 1009.0 |
| 20260501200747 | 16 | 220 | 1.6 | 4.8 | 0.00 | 0.00 | 0.00 | 38 | 1009.0 |
| 20260501200246 | 16 | 30 | 4.8 | 8.0 | 0.00 | 0.00 | 0.00 | 37 | 1009.0 |
| 20260501195746 | 16 | 19 | 3.2 | 4.8 | 0.00 | 0.00 | 0.00 | 37 | 1009.0 |
| 20260501195247 | 16 | 255 | 0.0 | 1.6 | 0.00 | 0.00 | 0.00 | 37 | 1009.0 |
| 20260501194747 | 16 | 179 | 1.6 | 4.8 | 0.00 | 0.00 | 0.00 | 37 | 1009.0 |
| 20260501194246 | 16 | 318 | 1.6 | 6.4 | 0.00 | 0.00 | 0.00 | 39 | 1009.0 |
| 20260501193746 | 15 | 244 | 4.8 | 8.0 | 0.00 | 0.00 | 0.00 | 38 | 1009.0 |
| 20260501193246 | 15 | 337 | 3.2 | 4.8 | 0.00 | 0.00 | 0.00 | 39 | 1009.0 |
| 20260501192746 | 15 | 285 | 0.0 | 1.6 | 0.00 | 0.00 | 0.00 | 38 | 1009.0 |
| 20260501192246 | 15 | 245 | 4.8 | 6.4 | 0.00 | 0.00 | 0.00 | 38 | 1009.0 |
| 20260501191746 | 15 | 188 | 1.6 | 4.8 | 0.00 | 0.00 | 0.00 | 39 | 1009.0 |
| 20260501191246 | 15 | 211 | 3.2 | 6.4 | 0.00 | 0.00 | 0.00 | 40 | 1009.0 |
| 20260501190747 | 15 | 311 | 3.2 | 8.0 | 0.00 | 0.00 | 0.00 | 39 | 1009.0 |
| 20260501190246 | 15 | 317 | 0.0 | 3.2 | 0.00 | 0.00 | 0.00 | 39 | 1009.0 |
| 20260501185747 | 15 | 349 | 3.2 | 3.2 | 0.00 | 0.00 | 0.00 | 39 | 1009.0 |
| 20260501185246 | 16 | 183 | 1.6 | 4.8 | 0.00 | 0.00 | 0.00 | 39 | 1009.0 |
| 20260501184746 | 16 | 0 | 0.0 | 0.0 | 0.00 | 0.00 | 0.00 | 38 | 1009.0 |
| 20260501184248 | 16 | 234 | 1.6 | 4.8 | 0.00 | 0.00 | 0.00 | 39 | 1010.0 |
| 20260501183747 | 16 | 231 | 4.8 | 8.0 | 0.00 | 0.00 | 0.00 | 37 | 1010.0 |
| 20260501183247 | 16 | 326 | 6.4 | 12.9 | 0.00 | 0.00 | 0.00 | 38 | 1010.0 |
| 20260501182746 | 16 | 280 | 3.2 | 9.7 | 0.00 | 0.00 | 0.00 | 39 | 1010.0 |
| 20260501182246 | 15 | 136 | 1.6 | 4.8 | 0.00 | 0.00 | 0.00 | 40 | 1010.0 |
| 20260501181746 | 15 | 335 | 1.6 | 4.8 | 0.00 | 0.00 | 0.00 | 41 | 1010.0 |
| 20260501181247 | 15 | 266 | 4.8 | 12.9 | 0.00 | 0.00 | 0.00 | 40 | 1010.0 |
| 20260501180746 | 15 | 10 | 1.6 | 6.4 | 0.00 | 0.00 | 0.00 | 41 | 1010.0 |
| 20260501180246 | 15 | 250 | 4.8 | 6.4 | 0.00 | 0.00 | 0.00 | 39 | 1010.0 |
| 20260501175746 | 15 | 235 | 3.2 | 6.4 | 0.00 | 0.00 | 0.00 | 39 | 1010.0 |
| 20260501175246 | 15 | 8 | 3.2 | 6.4 | 0.00 | 0.00 | 0.00 | 40 | 1010.0 |
| 20260501174746 | 15 | 345 | 1.6 | 6.4 | 0.00 | 0.00 | 0.00 | 40 | 1010.0 |
| 20260501174246 | 15 | 336 | 3.2 | 6.4 | 0.00 | 0.00 | 0.00 | 41 | 1010.0 |
| 20260501173747 | 15 | 245 | 3.2 | 4.8 | 0.00 | 0.00 | 0.00 | 41 | 1010.0 |
| 20260501173246 | 14 | 293 | 0.0 | 3.2 | 0.00 | 0.00 | 0.00 | 40 | 1010.0 |
| 20260501172746 | 14 | 244 | 3.2 | 8.0 | 0.00 | 0.00 | 0.00 | 40 | 1010.0 |
| 20260501172248 | 14 | 334 | 0.0 | 4.8 | 0.00 | 0.00 | 0.00 | 44 | 1010.0 |
| 20260501171747 | 14 | 357 | 3.2 | 4.8 | 0.00 | 0.00 | 0.00 | 44 | 1010.0 |
| 20260501171248 | 15 | 111 | 0.0 | 3.2 | 0.00 | 0.00 | 0.00 | 42 | 1010.0 |
| 20260501170747 | 15 | 0 | 1.6 | 3.2 | 0.00 | 0.00 | 0.00 | 44 | 1010.0 |
| 20260501170246 | 15 | 199 | 6.4 | 9.7 | 0.00 | 0.00 | 0.00 | 42 | 1010.0 |
| 20260501165747 | 15 | 256 | 3.2 | 6.4 | 0.00 | 0.00 | 0.00 | 41 | 1010.0 |
| 20260501165246 | 15 | 345 | 3.2 | 6.4 | 0.00 | 0.00 | 0.00 | 45 | 1010.0 |
| 20260501164746 | 14 | 334 | 1.6 | 6.4 | 0.00 | 0.00 | 0.00 | 47 | 1010.0 |
| 20260501164246 | 13 | 287 | 3.2 | 9.7 | 0.00 | 0.00 | 0.00 | 47 | 1010.0 |
| 20260501163746 | 13 | 43 | 3.2 | 6.4 | 0.00 | 0.00 | 0.00 | 45 | 1010.0 |
| 20260501163246 | 13 | 334 | 3.2 | 8.0 | 0.00 | 0.00 | 0.00 | 47 | 1010.0 |
| 20260501162747 | 13 | 333 | 3.2 | 8.0 | 0.00 | 0.00 | 0.00 | 47 | 1010.0 |
| 20260501162246 | 13 | 3 | 4.8 | 6.4 | 0.00 | 0.00 | 0.00 | 46 | 1010.0 |
| 20260501161746 | 13 | 6 | 1.6 | 4.8 | 0.00 | 0.00 | 0.00 | 47 | 1010.0 |
| 20260501161247 | 13 | 307 | 1.6 | 3.2 | 0.00 | 0.00 | 0.00 | 49 | 1010.0 |
| 20260501160746 | 13 | 348 | 4.8 | 9.7 | 0.00 | 0.00 | 0.00 | 48 | 1010.0 |
| 20260501160247 | 12 | 153 | 4.8 | 9.7 | 0.00 | 0.00 | 0.00 | 49 | 1011.0 |